Muscle Shoals, AL

11:00 PM CDT on July 21, 2017 (GMT -0500)
Northwest Alabama Regional

Weather History for KMSL - October, 2013

Change the Weather History Date:

Wednesday, October 2, 2013

  Actual Average Record
Temperature  
Mean Temperature 76 °F 67 °F  
Max Temperature 88 °F 79 °F 93 °F (1903)
Min Temperature 63 °F 55 °F 34 °F (1984)
Degree Days  
Heating Degree Days 0 2  
Month to date heating degree days 0 4  
Since 1 July heating degree days 0 19  
Cooling Degree Days 11 4  
Month to date cooling degree days 18 8  
Year to date cooling degree days 1808 1810  
Growing Degree Days 24 (Base 50)    
Moisture  
Dew Point 64 °F    
Average Humidity 71    
Maximum Humidity 93    
Minimum Humidity 48    
Precipitation  
Precipitation 0.00 in 0.11 in 1.21 in (1937)
Month to date precipitation 0.00 0.22  
Year to date precipitation 45.35 39.65  
Snow  
Snow 0.00 in - - ()
Month to date snowfall 0.0  
Since 1 July snowfall 0.0  
Since 1 September snowfall 0.0  
Snow Depth 0.00 in    
Sea Level Pressure  
Sea Level Pressure 30.10 in    
Wind  
Wind Speed 2 mph (West)    
Max Wind Speed 10 mph    
Max Gust Speed 13 mph    
Visibility 5 miles    
Events Fog    
T = Trace of Precipitation, MM = Missing Value Source: NWS Daily Summary

Daily Weather History Graph

Daily Weather History Graph

Search for Another Location

Airport or City:

Trip Planner

Search our weather history database for the weather conditions in past years. The results will help you decide how hot, cold, wet, or windy it might be!

Date:

Astronomy

Oct. 02, 2013 Rise Set
Actual Time 6:46 AM CDT 6:32 PM CDT
Civil Twilight 6:20 AM CDT 6:57 PM CDT
Nautical Twilight 5:51 AM CDT 7:27 PM CDT
Astronomical Twilight 5:22 AM CDT 7:56 PM CDT
Moon 4:23 AM CDT (10/2) 5:05 PM CDT (10/2)
Length of Visible Light 12h 36m
Length of Day
11h 46m
Waning Crescent, 6% of the Moon is Illuminated
Oct 2
Waning Crescent
Oct 4
New
Oct 11
First Quarter
Oct 18
Full
Oct 26
Last Quarter

Hourly Weather History & Observations

Time (CDT) Temp. Heat Index Dew Point Humidity Pressure Visibility Wind Dir Wind Speed Gust Speed Precip Events Conditions
12:10 AM 66.2 °F - 64.4 °F 94% 30.10 in 1.8 mi Calm Calm - N/A   Clear
12:24 AM 66.2 °F - 62.6 °F 88% 30.11 in 3.0 mi Calm Calm - N/A   Clear
12:53 AM 66.0 °F - 63.0 °F 90% 30.09 in 5.0 mi Calm Calm - N/A   Clear
1:07 AM 66.2 °F - 62.6 °F 88% 30.11 in 1.8 mi Calm Calm - N/A   Clear
1:23 AM 66.2 °F - 62.6 °F 88% 30.11 in 2.0 mi Calm Calm - N/A   Clear
1:34 AM 66.2 °F - 62.6 °F 88% 30.11 in 1.5 mi Calm Calm - N/A   Clear
1:53 AM 66.0 °F - 63.0 °F 90% 30.09 in 3.0 mi ENE 3.5 mph - N/A   Clear
2:53 AM 66.0 °F - 63.0 °F 90% 30.09 in 4.0 mi Calm Calm - N/A   Clear
3:04 AM 64.4 °F - 62.6 °F 94% 30.10 in 1.8 mi Calm Calm - N/A   Clear
3:16 AM 64.4 °F - 62.6 °F 94% 30.10 in 0.8 mi Calm Calm - N/A   Mist
3:19 AM 64.4 °F - 62.6 °F 94% 30.10 in 1.2 mi Calm Calm - N/A   Partly Cloudy
3:27 AM 64.4 °F - 62.6 °F 94% 30.10 in 0.8 mi Calm Calm - N/A   Mist
3:41 AM 64.4 °F - 62.6 °F 94% 30.10 in 2.0 mi Calm Calm - N/A   Partly Cloudy
3:49 AM 64.4 °F - 62.6 °F 94% 30.10 in 1.0 mi Calm Calm - N/A   Mist
3:53 AM 64.9 °F - 63.0 °F 93% 30.09 in 0.8 mi Calm Calm - N/A   Mist
3:59 AM 64.4 °F - 62.6 °F 94% 30.10 in 1.0 mi Calm Calm - N/A   Clear
4:10 AM 64.4 °F - 62.6 °F 94% 30.10 in 3.0 mi Calm Calm - N/A   Clear
4:53 AM 64.9 °F - 62.1 °F 90% 30.09 in 4.0 mi Calm Calm - N/A   Partly Cloudy
5:21 AM 64.4 °F - 60.8 °F 88% 30.12 in 1.8 mi Calm Calm - N/A   Partly Cloudy
5:31 AM 64.4 °F - 62.6 °F 94% 30.12 in 0.5 mi Calm Calm - N/A Fog Fog
5:53 AM 63.0 °F - 61.0 °F 93% 30.11 in 0.8 mi Calm Calm - N/A   Mostly Cloudy
6:16 AM 64.4 °F - 60.8 °F 88% 30.13 in 1.0 mi Calm Calm - N/A   Mostly Cloudy
6:30 AM 64.4 °F - 60.8 °F 88% 30.14 in 2.5 mi Calm Calm - N/A   Mostly Cloudy
6:38 AM 64.4 °F - 60.8 °F 88% 30.14 in 4.0 mi Calm Calm - N/A   Mostly Cloudy
6:53 AM 64.9 °F - 62.1 °F 90% 30.13 in 5.0 mi ENE 3.5 mph - N/A   Scattered Clouds
7:53 AM 68.0 °F - 64.0 °F 87% 30.13 in 7.0 mi Calm Calm - N/A   Clear
8:53 AM 72.0 °F - 64.9 °F 78% 30.14 in 10.0 mi Calm Calm - N/A   Partly Cloudy
9:53 AM 77.0 °F - 66.0 °F 69% 30.14 in 10.0 mi Calm Calm - N/A   Clear
10:53 AM 82.0 °F 83.1 °F 63.0 °F 52% 30.12 in 10.0 mi South 4.6 mph - N/A   Clear
11:53 AM 82.9 °F 84.0 °F 63.0 °F 51% 30.12 in 10.0 mi South 4.6 mph - N/A   Clear
12:53 PM 84.9 °F 85.9 °F 63.0 °F 48% 30.10 in 10.0 mi West 4.6 mph - N/A   Scattered Clouds
1:53 PM 82.9 °F 84.4 °F 64.0 °F 53% 30.09 in 10.0 mi SW 3.5 mph - N/A   Overcast
2:53 PM 80.1 °F 81.9 °F 64.9 °F 60% 30.07 in 10.0 mi WNW 6.9 mph - N/A   Overcast
3:53 PM 82.0 °F 83.8 °F 64.9 °F 56% 30.06 in 10.0 mi North 3.5 mph - N/A   Overcast
4:53 PM 84.0 °F 84.9 °F 63.0 °F 49% 30.06 in 10.0 mi NW 3.5 mph - N/A   Mostly Cloudy
5:53 PM 81.0 °F 83.0 °F 66.0 °F 60% 30.06 in 10.0 mi Calm Calm - N/A   Clear
6:53 PM 75.0 °F - 66.9 °F 76% 30.07 in 10.0 mi Calm Calm - N/A   Clear
7:53 PM 73.9 °F - 68.0 °F 82% 30.07 in 10.0 mi Calm Calm - N/A   Clear
8:53 PM 73.0 °F - 68.0 °F 84% 30.08 in 10.0 mi Calm Calm - N/A   Scattered Clouds
9:53 PM 72.0 °F - 66.9 °F 84% 30.09 in 10.0 mi Calm Calm - N/A   Clear
10:53 PM 72.0 °F - 66.9 °F 84% 30.09 in 10.0 mi Calm Calm - N/A   Clear
11:53 PM 71.1 °F - 66.9 °F 87% 30.08 in 9.0 mi ESE 3.5 mph - N/A   Clear